Class. scratch ↓ | Class. categorie ↓ | Dossard ↓ | Nom ↓ | Club ↓ | T. officiel ↓ | ||
|---|---|---|---|---|---|---|---|
| 62 / 363 | 2 V1F / 52 | 724 | CL ? | Erge Vras Court | 01:12:08 | ||
| 61 / 363 | 1 V1F / 52 | 647 | MG ? | Gourlizon Sports | 01:11:47 | ||
| 60 / 363 | 6 V2M / 46 | 632 | FF ? | Melgvenaventrail | 01:11:40 | ||
| 59 / 363 | 1 CAM / 3 | 607 | GD ? | 01:11:35 | |||
| 58 / 363 | 29 SEM / 85 | 880 | AT ? | 01:11:34 | |||
| 57 / 363 | 16 V1M / 57 | 616 | MD ? | Morlaix Triathlon | 01:11:29 | ||
| 56 / 363 | 28 SEM / 85 | 853 | MR ? | 01:11:24 | |||
| 55 / 363 | 3 ESM / 4 | 526 | JB ? | 01:11:14 | |||
| 54 / 363 | 27 SEM / 85 | 779 | JM ? | Koala Kerhuon | 01:11:14 | ||
| 53 / 363 | 26 SEM / 85 | 593 | MC ? | Hermine Sportsss Nature | 01:11:11 | ||
| 52 / 363 | 5 V2M / 46 | 646 | JG ? | Gourlizon Sports | 01:11:11 | ||
| 51 / 363 | 25 SEM / 85 | 686 | FI ? | Plcb Les Cavaleurs | 01:11:09 | ||
| 50 / 363 | 15 V1M / 57 | 734 | SL ? | Courir A Pouldreuzic/ Team Rider Tatoo | 01:11:02 | ||
| 49 / 363 | 14 V1M / 57 | 629 | GF ? | Team Rider Tattoo | 01:11:01 | ||
| 48 / 363 | 24 SEM / 85 | 736 | JL ? | 01:10:53 | |||
| 47 / 363 | 4 V2M / 46 | 764 | DM ? | Erge Vras Court | 01:10:52 | ||
| 46 / 363 | 3 V3M / 19 | 889 | JV ? | Qub Run | 01:10:21 | ||
| 45 / 363 | 3 V2M / 46 | 684 | GH ? | 01:10:05 | |||
| 44 / 363 | 13 V1M / 57 | 583 | JC ? | Argol | 01:09:48 | ||
| 43 / 363 | 2 V3M / 19 | 703 | HK ? | C A B Pont L Abbe | 01:09:22 | ||
| 42 / 363 | 12 V1M / 57 | 562 | SC ? | 01:09:19 | |||
| 41 / 363 | 11 V1M / 57 | 681 | FH ? | 01:09:18 | |||
| 40 / 363 | 10 V1M / 57 | 634 | TF ? | Hermine Sport Nature Kernilis | 01:09:14 | ||
| 39 / 363 | 23 SEM / 85 | 692 | AJ ? | Courir Sur Brest | 01:09:10 | ||
| 38 / 363 | 22 SEM / 85 | 814 | RP ? | 01:09:06 | |||
| 37 / 363 | 9 V1M / 57 | 778 | JM ? | 01:09:02 | |||
| 36 / 363 | 8 V1M / 57 | 848 | VR ? | Tdm | 01:08:54 | ||
| 35 / 363 | 1 V3M / 19 | 785 | AM ? | Douarnenez | 01:08:53 | ||
| 34 / 363 | 1 SEF / 50 | 859 | VS ? | Courir Sur Brest | 01:08:44 | ||
| 33 / 363 | 7 V1M / 57 | 523 | EB ? | Courir Sur Brest | 01:08:41 | ||
| 32 / 363 | 21 SEM / 85 | 815 | LP ? | 01:08:26 | |||
| 31 / 363 | 6 V1M / 57 | 504 | YA ? | Melgven Aven Trail | 01:08:11 | ||
| 30 / 363 | 20 SEM / 85 | 581 | AC ? | 01:07:58 | |||
| 29 / 363 | 19 SEM / 85 | 553 | YB ? | Courir Sur Brest | 01:07:22 | ||
| 28 / 363 | 18 SEM / 85 | 743 | FL ? | 01:07:04 | |||
| 27 / 363 | 17 SEM / 85 | 536 | YB ? | Plozevet | 01:07:03 | ||
| 26 / 363 | 2 ESM / 4 | 660 | TG ? | Stade Brestois * | 01:06:56 | ||
| 25 / 363 | 5 V1M / 57 | 525 | WB ? | Snls44 | 01:06:55 | ||
| 24 / 363 | 16 SEM / 85 | 849 | AR ? | 01:06:41 | |||
| 23 / 363 | 15 SEM / 85 | 891 | AY ? | 01:06:36 | |||
| Disqualifié | SEF | 669 | MG ? | 01:06:23 | |||
| 22 / 363 | 14 SEM / 85 | 674 | RH ? | 01:06:00 | |||
| 21 / 363 | 13 SEM / 85 | 556 | VB ? | 01:05:49 | |||
| 20 / 363 | 1 ESM / 4 | 807 | YP ? | 01:05:45 | |||
| 19 / 363 | 2 V2M / 46 | 656 | JG ? | Semelles De Vent | 01:05:28 | ||
| 18 / 363 | 1 JUM / 3 | 718 | TL ? | 01:05:28 | |||
| 17 / 363 | 12 SEM / 85 | 509 | AA ? | 01:05:02 | |||
| 16 / 363 | 11 SEM / 85 | 816 | DP ? | 01:04:52 | |||
| 15 / 363 | 10 SEM / 85 | 772 | GM ? | Les Cavaleurs Plmcb Brest | 01:04:09 | ||
| 14 / 363 | 9 SEM / 85 | 745 | TD ? | Courir Sur Brest | 01:03:32 |
Contactez l'assistance JeVeuxCourir.fr !
Avec Listino Chrono, vous pouvez consulter votre classement en ligne quelques secondes après votre arrivée, et même avant pour les temps intermédiaires !